Starlink 11085

operational
NORAD ID: 59425 Int'l Des: 2024-065 Owner: SPXS Country: US Constellation: starlink
LEOCIRCULAR

关于 Starlink 11085

正在加载描述...

实时位置

正在加载3D地球...

即将过境

高度历史

Altitude vs Time

uPlot chart will show altitude changes over time

两行轨道根数

1 59425U 24065E 26036.02298339 .00000642 00000-0 10157-4 0 9995
2 59425 53.1603 254.8279 0001110 79.8743 280.2400 15.69707250106345
Epoch: Feb 5, 2026 • Age: 17 hours

当前状态

高度 362.8 km
速度 7.70 km/s
星下点 39.93°N, 11.69°W
发射日期 Apr 7, 2024
运行时间 1.8 years
类型 internet

技术详情

分类 Payload
质量 960.00 kg
干质量 910.00 kg
总质量 960.00 kg
长度 0.30 m
直径 4.10 m
跨度 29.00 m
形状 Box + pan
制造商 SPXS
平台类型 Starlink V2MD
阶段状态 In Orbit
所有者/国家 SPXS/US

大型星座

Loading constellations...